2017-008CG

Last updated on Thu Mar 02 2017 00:15:03 GMT+0000 (Coordinated Universal Time)

1 42026U 17008CG 17060.60630863 .00007118 00000-0 31738-3 0 9998 2 42026 97.5133 122.2164 0007817 199.9920 160.0911 15.21696546 153
UTC large
Height (km)
Speed (km/s)
/
Latitude / Longitude
Inclination (degrees)
Orbital Period (minutes)
Azimuth
Elevation
Range (km)
Doppler Factor

Next 0 passes for location: London (51.5072 / 0.1276)

Sorry there are no passes over London.